Content
SEND FEEDBACK

Daily
Averages
Monthly
Summary
United States of America

YSLETA, TEXAS


Home > North America > United States > Texas
Elevation: 3725 feet     Latitude: 31 42N     Longitude: 106 19W

WEATHER
 
SELECT A DAY
Number of Records: 172,213;   Date Range: 1/1/95 - 9/18/14
 
SHARE

PRINT THIS DATA

[ ← Previous Day ]
WEATHER ALMANAC - NOVEMBER 22, 2013
[ Next Day → ]
[ °C ]   °F
Weather ElementAverageHighLow
Temperature40.7 °F55 °F (1:51 am)35.1 °F (6:51 pm)
Dewpoint27.5 °F36 °F (1:51 am)23 °F (6:51 pm)
Humidity59.6 %64 % (5:51 pm)49 % (1:51 am)
Barometer30.18 in30.32 in (10:51 pm)29.91 in (1:51 am)
Wind Speed12 mph16.1 mph (9:51 am)
Wind Gust24.2 mph (6:51 pm)
Weather ElementAverage
Visibility10 mi
Wind DirectionENE (74.2 °)

Weather ElementTotal
Precipitation---
Heating Degree Days20 (Base 65)
Averaged from 24 records on November 22, 2013
WEATHER CONDITIONS BREAKOUT
WIND DIRECTION BREAKOUT
WEATHER BY HOUR - NOVEMBER 22, 2013
[ °C ]   °F
Local TimeTemperatureDewpointHumidityBarometerVisibilityWind DirectionWind SpeedGust SpeedPrecipitationEventsConditions
1:51 AM55.0 °F36.0 °F49 %29.91 in10.0 miENE (70°)8.1 mphMostly Cloudy
2:51 AM53.1 °F35.1 °F50 %29.94 in10.0 miNE (40°)6.9 mphMostly Cloudy
3:51 AM50.0 °F34.0 °F54 %29.98 in10.0 miVariable6.9 mphMostly Cloudy
4:51 AM46.9 °F34.0 °F61 %30.01 in10.0 miEast (80°)8.1 mphMostly Cloudy
5:51 AM44.1 °F32.0 °F63 %30.07 in10.0 miEast (80°)11.5 mph19.6 mphOvercast
6:43 AM42.8 °F30.2 °F61 %30.20 in10.0 miENE (60°)9.2 mphOvercast
6:51 AM43.0 °F28.9 °F58 %30.11 in10.0 miENE (60°)10.4 mphOvercast
7:51 AM42.1 °F28.9 °F60 %30.15 in10.0 miEast (80°)10.4 mphOvercast
8:51 AM41.0 °F28.0 °F60 %30.19 in10.0 miEast (90°)12.7 mphOvercast
9:51 AM39.9 °F27.0 °F60 %30.21 in10.0 miENE (70°)16.1 mphOvercast
10:51 AM39.9 °F26.1 °F58 %30.21 in10.0 miENE (70°)6.9 mphOvercast
11:51 AM39.9 °F26.1 °F58 %30.19 in10.0 miENE (70°)11.5 mphOvercast
12:51 PM39.0 °F25.0 °F57 %30.18 in10.0 miEast (80°)11.5 mphOvercast
1:51 PM39.0 °F25.0 °F57 %30.19 in10.0 miEast (80°)15.0 mphOvercast
2:51 PM37.9 °F25.0 °F60 %30.20 in10.0 miEast (90°)15.0 mphOvercast
3:51 PM37.0 °F25.0 °F62 %30.22 in10.0 miEast (80°)15.0 mphOvercast
4:51 PM37.0 °F25.0 °F62 %30.23 in10.0 miEast (80°)15.0 mphOvercast
5:51 PM36.0 °F25.0 °F64 %30.25 in10.0 miENE (70°)13.8 mph21.9 mphOvercast
6:51 PM35.1 °F23.0 °F61 %30.27 in10.0 miEast (80°)16.1 mph24.2 mphOvercast
7:51 PM35.1 °F24.1 °F64 %30.28 in10.0 miEast (90°)13.8 mph19.6 mphOvercast
8:51 PM35.1 °F24.1 °F64 %30.30 in10.0 miEast (90°)16.1 mphOvercast
9:51 PM36.0 °F24.1 °F62 %30.30 in10.0 miEast (90°)11.5 mphOvercast
10:51 PM36.0 °F24.1 °F62 %30.32 in10.0 miEast (90°)10.4 mphOvercast
11:51 PM35.1 °F24.1 °F64 %30.31 in10.0 miEast (90°)15.0 mphOvercast
Hourly data recorded from KELP, located miles away from Ysleta, Texas







STORIES FROM OUR PARTNERS